Погода в Гирге

Египет     26°20′12″N   31°53′26″E
темп.,
°C
ветер,
м/с
пор.,
м/с
влажн.,
%
обл.,
%
осадки,
мм/ч
давл.,
гПа
погр.,
м
19 апреля, пн
пн1923:00+31вюв33212 0.0 101134
02:00+27ююв11275 0.0 101111
05:00+26юв22305 0.0 101111
08:00+32юв351952 0.0 1012374
11:00+39юв7910100 0.0 10103123
14:00+41юв678100 0.0 10063884
17:00+40ю558100 0.0 10064263
20:00+35всв221256 0.0 100825
20 апреля, вт
вт2023:00+32в3319100 0.0 100933
02:00+30в2221100 0.0 100817
05:00+29ююв2224100 0.0 100813
08:00+34юв2319100 0.0 1010331
11:00+39юв4513100 0.0 10091705
14:00+41ююв32106 0.0 10064862
17:00+41вюв4310100 0.0 10053562
20:00+33зсз131626100 0.1 1008668
21 апреля, ср
ср2123:00+31ссв352413 0.0 1010110
02:00+28сз68285 0.0 1009181
05:00+24зсз573476 0.0 1010156
08:00+28сз442769 0.0 1012342
11:00+35сз431775 0.0 1011988
14:00+39зсз5413100 0.0 10081710
17:00+38сз5513100 0.0 10071116
20:00+33сз8131776 0.0 1009394
22 апреля, чт
чт2223:00+30ссз4620100 0.0 1010122
02:00+29сз5621100 0.0 1010117
05:00+26зсз572592 0.0 1011150
08:00+29сз3422100 0.2 1012279
11:00+37сз22131 0.0 10111216
14:00+41сз11100 0.0 10083774
17:00+40ссз87814 0.1 10072097
20:00+36с9141020 0.1 1009564
23 апреля, пт
пт2323:00+31с25140 0.0 101198
02:00+28сз47170 0.0 1010115
05:00+26сз45190 0.0 101077
08:00+32сз23110 0.0 1010375
11:00+40св2360 0.0 10092800
14:00+42ссв4350 0.0 10064475
17:00+41с5550 0.0 10064750
20:00+35с61180 0.0 1008292